Radiation Dose at Monitoring Post of Fukushima Daini Nuclear Power Station
Date,Time,MP-1(microSv/h),MP-2(microSv/h),MP-3(microSv/h),MP-4(microSv/h),MP-5(microSv/h),MP-6(microSv/h),MP-7(microSv/h),Wind Direction,Wind Velocity(m/s),Rain
2013/01/28,00:00,1.1,0.7,1.1,1.0,0.9,0.5,0.4,northwest,4.7,No
2013/01/28,00:10,1.1,0.7,1.1,1.0,0.9,0.5,0.4,north-northwest,3.8,No
2013/01/28,00:20,1.1,0.7,1.1,1.0,0.9,0.5,0.4,north-northwest,2.9,No
2013/01/28,00:30,1.1,0.7,1.1,1.0,0.9,0.5,0.4,north-northwest,4.1,No
2013/01/28,00:40,1.1,0.7,1.1,1.0,0.9,0.5,0.4,northwest,5.8,No
2013/01/28,00:50,1.1,0.7,1.1,1.0,0.9,0.5,0.4,north-northwest,5.8,No
2013/01/28,01:00,1.1,0.7,1.1,1.0,0.9,0.5,0.4,north-northwest,4.4,No
2013/01/28,01:10,1.1,0.7,1.1,1.0,0.9,0.5,0.4,north-northwest,3.3,No
2013/01/28,01:20,1.1,0.7,1.1,1.0,0.9,0.5,0.4,north,4.1,No
2013/01/28,01:30,1.1,0.7,1.1,1.0,0.9,0.5,0.4,north,3.4,No
2013/01/28,01:40,1.1,0.7,1.1,1.0,0.9,0.5,0.4,north,3.4,No
2013/01/28,01:50,1.1,0.7,1.1,1.0,0.9,0.5,0.4,north-northwest,4.6,No
2013/01/28,02:00,1.1,0.7,1.1,1.0,0.9,0.5,0.4,north-northwest,5.0,No
2013/01/28,02:10,1.1,0.7,1.1,1.0,0.9,0.5,0.4,north-northwest,5.7,No
2013/01/28,02:20,1.1,0.7,1.1,1.0,0.9,0.5,0.4,north-northwest,6.9,No
2013/01/28,02:30,1.1,0.7,1.1,1.0,0.9,0.5,0.4,north-northwest,7.8,No
2013/01/28,02:40,1.1,0.7,1.1,1.0,0.9,0.5,0.4,north-northwest,7.8,No
2013/01/28,02:50,1.1,0.7,1.1,1.0,0.9,0.5,0.4,north-northwest,7.6,No
2013/01/28,03:00,1.1,0.7,1.1,1.0,0.9,0.5,0.4,northwest,6.5,No
2013/01/28,03:10,1.1,0.7,1.1,1.0,0.9,0.5,0.4,north-northwest,6.3,No
2013/01/28,03:20,1.1,0.7,1.1,1.0,0.9,0.5,0.4,north-northwest,5.5,No
2013/01/28,03:30,1.1,0.7,1.1,1.0,0.9,0.5,0.4,northwest,5.2,No
2013/01/28,03:40,1.1,0.7,1.1,1.0,0.9,0.5,0.4,northwest,6.2,No
2013/01/28,03:50,1.1,0.7,1.1,1.0,0.9,0.5,0.4,north-northwest,6.3,No
2013/01/28,04:00,1.1,0.7,1.1,1.0,0.9,0.5,0.4,north-northwest,6.5,No
2013/01/28,04:10,1.1,0.7,1.1,1.0,0.9,0.5,0.4,north-northwest,7.2,No
2013/01/28,04:20,1.1,0.7,1.1,1.0,0.9,0.5,0.4,north-northwest,8.1,No
2013/01/28,04:30,1.1,0.7,1.1,1.0,0.9,0.5,0.4,north-northwest,8.5,No
2013/01/28,04:40,1.1,0.7,1.1,1.0,0.9,0.5,0.4,north-northwest,8.3,No
2013/01/28,04:50,1.1,0.7,1.1,1.0,0.9,0.5,0.4,north-northwest,8.2,No
2013/01/28,05:00,1.1,0.7,1.1,1.0,0.9,0.5,0.4,north-northwest,8.3,No
2013/01/28,05:10,1.1,0.7,1.1,1.0,0.9,0.5,0.4,north-northwest,8.4,No
2013/01/28,05:20,1.1,0.7,1.1,1.0,0.9,0.5,0.4,north-northwest,9.2,No
2013/01/28,05:30,1.1,0.7,1.1,1.0,0.9,0.5,0.4,north-northwest,9.8,No
2013/01/28,05:40,1.1,0.7,1.1,1.0,0.9,0.5,0.4,north-northwest,10.0,No
2013/01/28,05:50,1.1,0.7,1.1,1.0,0.9,0.5,0.4,north-northwest,8.7,No
2013/01/28,06:00,1.1,0.7,1.1,1.0,0.9,0.5,0.4,north,8.8,No
2013/01/28,06:10,1.1,0.7,1.1,1.0,0.9,0.5,0.4,north,7.9,No
2013/01/28,06:20,1.1,0.7,1.1,1.0,0.9,0.5,0.4,north-northwest,8.1,No
2013/01/28,06:30,1.1,0.7,1.1,1.0,0.9,0.5,0.4,north-northwest,9.2,No
2013/01/28,06:40,1.1,0.7,1.1,1.0,0.9,0.5,0.4,north-northwest,9.8,No
2013/01/28,06:50,1.1,0.7,1.1,1.0,0.9,0.5,0.4,north-northwest,9.2,No
2013/01/28,07:00,1.1,0.7,1.1,1.0,0.9,0.5,0.4,north-northwest,9.3,No
2013/01/28,07:10,1.1,0.7,1.1,1.0,0.9,0.5,0.4,north-northwest,10.0,No
2013/01/28,07:20,1.1,0.7,1.1,1.0,0.9,0.5,0.4,north-northwest,8.6,No
2013/01/28,07:30,1.1,0.7,1.1,1.0,0.9,0.5,0.4,north-northwest,7.8,No
2013/01/28,07:40,1.1,0.7,1.1,1.0,0.9,0.5,0.4,north-northwest,8.3,No
2013/01/28,07:50,1.1,0.7,1.1,1.0,0.9,0.5,0.4,north-northwest,8.9,No
2013/01/28,08:00,1.1,0.7,1.1,1.0,0.9,0.5,0.4,north-northwest,9.8,No
2013/01/28,08:10,1.1,0.7,1.1,1.0,0.9,0.5,0.4,north-northwest,9.2,No
2013/01/28,08:20,1.1,0.7,1.1,1.0,0.9,0.5,0.4,north-northwest,8.1,No
2013/01/28,08:30,1.1,0.7,1.1,1.0,0.9,0.5,0.4,north-northwest,7.5,No
2013/01/28,08:40,1.1,0.7,1.1,1.0,0.9,0.5,0.4,north-northwest,7.8,No
2013/01/28,08:50,1.1,0.7,1.1,1.0,0.9,0.5,0.4,north-northwest,8.1,No
2013/01/28,09:00,1.1,0.7,1.1,1.0,0.9,0.5,0.4,north-northwest,7.2,No
2013/01/28,09:10,1.1,0.7,1.1,1.0,0.9,0.5,0.4,north-northwest,7.4,No
2013/01/28,09:20,1.1,0.7,1.1,1.0,0.9,0.5,0.4,north-northwest,7.2,No
2013/01/28,09:30,1.1,0.7,1.1,1.0,0.9,0.5,0.4,north-northwest,6.2,No
2013/01/28,09:40,1.1,0.7,1.1,1.0,0.9,0.5,0.4,north-northwest,9.2,No
2013/01/28,09:50,1.1,0.7,1.1,1.0,0.9,0.5,0.4,north-northwest,10.7,No
2013/01/28,10:00,1.1,0.7,1.1,1.0,0.9,0.5,0.4,north-northwest,10.0,No
2013/01/28,10:10,1.1,0.7,1.1,1.0,0.9,0.5,0.4,north-northwest,8.9,No
2013/01/28,10:20,1.1,0.7,1.1,1.0,0.9,0.5,0.4,north-northwest,10.0,No
2013/01/28,10:30,1.1,0.7,1.1,1.0,0.9,0.5,0.4,north-northwest,8.1,No
2013/01/28,10:40,1.1,0.7,1.1,1.0,0.9,0.5,0.4,north,8.3,No
2013/01/28,10:50,1.1,0.7,1.1,1.0,0.9,0.5,0.4,north,8.6,No
2013/01/28,11:00,1.1,0.7,1.1,1.0,0.9,0.5,0.4,north,7.3,No
2013/01/28,11:10,1.1,0.7,1.1,1.0,0.9,0.5,0.4,north,6.3,No
2013/01/28,11:20,1.1,0.7,1.1,1.0,0.9,0.5,0.4,north,7.7,No
2013/01/28,11:30,1.1,0.7,1.1,1.0,0.9,0.5,0.4,north,7.2,No
2013/01/28,11:40,1.1,0.7,1.1,1.0,0.9,0.5,0.4,north-northeast,9.2,No
2013/01/28,11:50,1.1,0.7,1.1,1.0,0.9,0.5,0.4,north,7.5,No
2013/01/28,12:00,1.1,0.7,1.1,1.0,0.9,0.5,0.4,north,8.1,No
2013/01/28,12:10,1.1,0.7,1.1,1.0,0.9,0.5,0.4,north-northeast,10.1,No
2013/01/28,12:20,1.1,0.7,1.1,1.0,0.9,0.5,0.4,north,8.1,No
2013/01/28,12:30,1.1,0.7,1.1,1.0,0.9,0.5,0.4,north-northeast,10.1,No
2013/01/28,12:40,1.1,0.7,1.1,1.0,0.9,0.5,0.4,north-northeast,9.2,No
2013/01/28,12:50,1.1,0.7,1.1,1.0,0.9,0.5,0.4,north-northeast,10.1,No
2013/01/28,13:00,1.1,0.7,1.1,1.0,0.9,0.5,0.4,north-northeast,8.1,No
2013/01/28,13:10,1.1,0.7,1.1,1.0,0.9,0.5,0.4,northeast,10.1,No
2013/01/28,13:20,1.1,0.7,1.1,1.0,0.9,0.5,0.4,north-northeast,8.9,No
2013/01/28,13:30,1.1,0.7,1.1,1.0,0.9,0.5,0.4,north-northeast,8.4,No
2013/01/28,13:40,1.1,0.7,1.1,1.0,0.9,0.5,0.4,north-northeast,8.1,No
2013/01/28,13:50,1.1,0.7,1.1,1.0,0.9,0.5,0.4,north-northeast,8.2,No
2013/01/28,14:00,1.1,0.7,1.1,1.0,0.9,0.5,0.4,northeast,7.2,No
2013/01/28,14:10,1.1,0.7,1.1,1.0,0.9,0.5,0.4,north-northeast,6.7,No
2013/01/28,14:20,1.1,0.7,1.1,1.0,0.9,0.5,0.4,north-northeast,6.4,No
2013/01/28,14:30,1.1,0.7,1.1,1.0,0.9,0.5,0.4,north-northeast,7.6,No
2013/01/28,14:40,1.1,0.7,1.1,1.0,0.9,0.5,0.4,north-northeast,7.9,No
2013/01/28,14:50,1.1,0.7,1.1,1.0,0.9,0.5,0.4,north-northeast,7.6,No
2013/01/28,15:00,1.1,0.7,1.1,1.0,0.9,0.5,0.4,north-northeast,7.4,No
2013/01/28,15:10,1.1,0.7,1.1,1.0,0.9,0.5,0.4,north-northeast,8.1,No
2013/01/28,15:20,1.1,0.7,1.1,1.0,0.9,0.5,0.4,north-northeast,7.5,No
2013/01/28,15:30,1.1,0.7,1.1,1.0,0.9,0.5,0.4,north-northeast,5.3,No
2013/01/28,15:40,1.1,0.7,1.1,1.0,0.9,0.5,0.4,north,4.7,No
2013/01/28,15:50,1.1,0.7,1.1,1.0,0.9,0.5,0.4,north,4.7,No
2013/01/28,16:00,1.1,0.7,1.1,1.0,0.9,0.5,0.4,north-northeast,3.4,No
2013/01/28,16:10,1.1,0.7,1.1,1.0,0.9,0.5,0.4,northeast,3.1,No
2013/01/28,16:20,1.1,0.7,1.1,1.0,0.9,0.5,0.4,north-northwest,2.2,No
2013/01/28,16:30,1.1,0.7,1.1,1.0,0.9,0.5,0.4,northwest,2.5,No
2013/01/28,16:40,1.1,0.7,1.1,1.0,0.9,0.5,0.4,northwest,3.1,No
2013/01/28,16:50,1.1,0.7,1.1,1.0,0.9,0.5,0.4,northwest,3.9,No
2013/01/28,17:00,1.1,0.7,1.1,1.0,0.9,0.5,0.4,west-northwest,8.1,No
2013/01/28,17:10,1.1,0.7,1.1,1.0,0.9,0.5,0.4,west-northwest,8.4,No
2013/01/28,17:20,1.1,0.7,1.1,1.0,0.9,0.5,0.4,west-northwest,8.8,No
2013/01/28,17:30,1.1,0.7,1.1,1.0,0.9,0.5,0.4,west-northwest,9.0,No
2013/01/28,17:40,1.1,0.7,1.1,1.0,0.9,0.5,0.4,west-northwest,8.3,No
2013/01/28,17:50,1.1,0.7,1.1,1.0,0.9,0.5,0.4,northwest,7.9,No
2013/01/28,18:00,1.1,0.7,1.1,1.0,0.9,0.5,0.4,northwest,6.3,No
2013/01/28,18:10,1.1,0.7,1.1,1.0,0.9,0.5,0.4,northwest,7.2,No
2013/01/28,18:20,1.1,0.7,1.1,1.0,0.9,0.5,0.4,northwest,6.4,No
2013/01/28,18:30,1.1,0.7,1.1,1.0,0.9,0.5,0.4,northwest,4.3,No
2013/01/28,18:40,1.1,0.7,1.1,1.0,0.9,0.5,0.4,northwest,7.4,No
2013/01/28,18:50,1.1,0.7,1.1,1.0,0.9,0.5,0.4,northwest,5.8,No
2013/01/28,19:00,1.1,0.7,1.1,1.0,0.9,0.5,0.4,northwest,4.8,No
2013/01/28,19:10,1.1,0.7,1.1,1.0,0.9,0.5,0.4,northwest,2.7,No
2013/01/28,19:20,1.1,0.7,1.1,1.0,0.9,0.5,0.4,southwest,0.8,No
2013/01/28,19:30,1.1,0.7,1.1,1.0,0.9,0.5,0.4,west,1.9,No
2013/01/28,19:40,1.1,0.7,1.1,1.0,0.9,0.5,0.4,west,1.9,No
2013/01/28,19:50,1.1,0.7,1.1,1.0,0.9,0.5,0.4,west,4.6,No
2013/01/28,20:00,1.1,0.7,1.1,1.0,0.9,0.5,0.4,west,7.6,No
2013/01/28,20:10,1.1,0.7,1.1,1.0,0.9,0.5,0.4,west-northwest,7.1,No
2013/01/28,20:20,1.1,0.7,1.1,1.0,0.9,0.5,0.4,west-northwest,5.8,No
2013/01/28,20:30,1.1,0.7,1.1,1.0,0.9,0.5,0.4,northwest,5.3,No
2013/01/28,20:40,1.1,0.7,1.1,1.0,0.9,0.5,0.4,northwest,3.9,No
2013/01/28,20:50,1.1,0.7,1.1,1.0,0.9,0.5,0.4,west-northwest,3.1,No
2013/01/28,21:00,1.1,0.7,1.1,1.0,0.9,0.5,0.4,west-northwest,1.9,No
2013/01/28,21:10,1.1,0.7,1.1,1.0,0.9,0.5,0.4,west-northwest,1.6,No
2013/01/28,21:20,1.1,0.7,1.1,1.0,0.9,0.5,0.4,west-northwest,2.0,No
2013/01/28,21:30,1.1,0.7,1.1,1.0,0.9,0.5,0.4,northwest,1.1,No
2013/01/28,21:40,1.1,0.7,1.1,1.0,0.9,0.5,0.4,-,-,No
2013/01/28,21:50,1.1,0.7,1.1,1.0,0.9,0.5,0.4,southwest,1.2,No
2013/01/28,22:00,1.1,0.7,1.1,1.0,0.9,0.5,0.4,southwest,1.4,No
2013/01/28,22:10,1.1,0.7,1.1,1.0,0.9,0.5,0.4,west-northwest,3.0,No
2013/01/28,22:20,1.1,0.7,1.1,1.0,0.9,0.5,0.4,north-northwest,2.9,No
2013/01/28,22:30,1.1,0.7,1.1,1.0,0.9,0.5,0.4,northwest,3.8,No
2013/01/28,22:40,1.1,0.7,1.1,1.0,0.9,0.5,0.4,west-northwest,4.4,No
2013/01/28,22:50,1.1,0.7,1.1,1.0,0.9,0.5,0.4,west-northwest,4.9,No
2013/01/28,23:00,1.1,0.7,1.1,1.0,0.9,0.5,0.4,north-northwest,5.7,No
2013/01/28,23:10,1.1,0.7,1.1,1.0,0.9,0.5,0.4,north,4.3,No
2013/01/28,23:20,1.1,0.7,1.1,1.0,0.9,0.5,0.4,north-northwest,2.4,No
2013/01/28,23:30,1.1,0.7,1.1,1.0,0.9,0.5,0.4,west,2.2,No
2013/01/28,23:40,1.1,0.7,1.1,1.0,0.9,0.5,0.4,west,1.5,No
2013/01/28,23:50,1.1,0.7,1.1,1.0,0.9,0.5,0.4,west-northwest,1.4,No
